Regional Weather Roundup
Issued by NWS Goodland, KS

Home | Current Version | Previous Version | Text Only | Print | Product List | Glossary On
Versions: 1 2 3 4 5 6 7 8 9 10 11 12 13 14 15 16 17 18 19 20 21 22 23 24 25 26 27 28 29 30 31 32 33 34 35 36 37 38 39 40 41 42 43 44 45 46 47 48 49 50
000
ASUS43 KGLD 280708
RWRGLD

GOODLAND FORECAST AREA HOURLY WEATHER ROUNDUP
NATIONAL WEATHER SERVICE GOODLAND KS
100 AM MDT TUE APR 28 2015

...OFFICIAL OBSERVATIONS...

CITY           SKY/WX    TMP DP  RH WIND       PRES   REMARKS
GOODLAND KS    MOCLDY    39  35  86 W8        30.28R
HILL CITY KS   CLEAR     40  35  83 NW3       30.24R
IMPERIAL NEB   MOCLDY    49  39  68 NE14      30.29R
MCCOOK NEB     PTCLDY    41  36  82 W5        30.25R
AKRON CO       CLOUDY    45  43  93 N13       30.33R
BURLINGTON CO  CLOUDY    44  36  73 NW9       30.29R
LIMON CO       MOCLDY    40  37  89 NW10      30.33S
$$

...UNOFFICIAL OBSERVATIONS...

CITY           SKY/WX    TMP DP  RH WIND       PRES   REMARKS
COLBY KS       CLEAR     39  36  87 NW7       30.27R
GOVE KS          N/A     38  32  79 MISG        N/A
LENORA KS        N/A     47  32  56 MISG        N/A
NORTON KS      CLEAR     37  30  75 NW3       30.23S
SHARON SPRINGS   N/A     39  34  83 CALM        N/A
TRIBUNE KS     CLEAR     39  37  93 NW7       30.28R
KIT CARSON CO    N/A     44  38  78 MISG        N/A
YUMA CO          N/A     46  42  85 N16         N/A
$$


USA.gov is the U.S. government's official web portal to all federal, state and local government web resources and services.